SCP
0 0 1 1 1 1 2 2 2 2 2 1 1 1 1 1 1 1 1 1 1 1 1 1 1 1 1 1 1 1 1 1 1 0 0 0 0 0 1 1 1 1 1
1 1 1 1 1 1 2 2 2 2 2 2 1 1 1 1 1 1 1 1 1 1 1 1 1 1 1 1 1 1 1 0 0 0 0 0 0 0 1 1 1 1 1
1 1 1 1 1 1 2 2 2 2 2 2 2 1 1 1 1 1 1 1 1 1 1 1 1 1 1 1 1 1 0 0 0 0 0 0 0 1 1 1 1 1 1
1 1 1 1 1 1 1 2 2 2 2 2 1 1 1 1 1 1 1 1 1 1 1 1 1 0 0 0 0 0 0 0 0 0 0 0 0 0 1 1 1 1 1
1 1 1 1 1 1 1 1 1 1 1 1 1 1 1 1 1 1 1 1 1 1 0 0 0 0 0 0 0 0 0 0 0 0 0 0 0 0 1 1 1 1 1
1 1 1 1 1 1 1 1 1 1 1 1 1 1 1 1 1 1 0 0 0 0 0 0 0 0 0 0 0 0 0 0 0 0 0 0 0 0 0 0 1 1 1
1 1 1 1 1 1 1 1 1 1 1 1 1 1 1 0 0 0 0 0 0 0 0 0 0 0 0 0 0 0 1 1 0 0 0 0 0 0 0 0 0 0 1
1 1 1 1 1 1 1 1 1 1 1 1 1 1 0 0 0 0 0 0 0 0 0 0 0 0 0 0 0 0 1 0 0 0 0 0 0 1 1 0 0 0 0
1 1 1 1 1 1 1 1 1 1 1 1 1 1 0 0 0 0 0 0 0 0 0 0 0 0 0 0 0 0 1 0 0 0 0 0 1 1 1 0 0 0 0
1 1 1 1 1 1 1 1 1 1 1 1 1 0 0 0 0 0 0 0 0 0 0 0 0 0 0 0 0 1 1 0 0 0 0 0 1 1 1 0 0 0 0
0 0 1 1 1 1 1 1 1 1 1 1 0 0 0 0 0 0 0 0 0 0 1 0 0 1 0 0 0 1 1 0 0 0 0 0 1 1 1 0 1 1 1
0 0 0 1 1 1 1 1 1 1 0 0 0 0 0 0 0 0 0 0 0 1 1 1 1 1 1 0 0 0 0 0 0 0 0 1 1 1 1 0 0 0 0
0 0 0 1 1 1 1 1 1 1 0 0 0 0 0 0 0 0 0 0 0 0 0 0 1 1 0 0 0 0 0 0 1 1 1 1 1 1 1 0 0 1 1
1 1 1 1 1 1 1 1 1 1 1 0 0 0 0 0 0 0 0 0 0 0 0 0 0 0 0 0 0 0 0 1 1 1 1 1 1 1 1 1 1 1 1
1 1 1 1 1 1 1 1 1 1 0 0 0 0 0 0 0 0 0 0 0 0 0 0 0 0 0 0 0 0 0 1 1 1 1 1 1 1 1 1 1 1 1
1 1 1 1 1 1 1 1 1 1 0 0 0 0 0 0 0 0 0 0 0 0 0 0 0 0 0 0 0 0 0 0 1 1 1 1 1 1 1 1 1 1 1
1 1 1 1 1 1 1 1 1 1 1 0 0 0 0 0 0 0 0 0 0 0 0 1 0 0 0 0 0 0 0 0 0 1 1 1 1 1 1 1 1 1 1
1 1 2 2 1 1 1 1 1 1 1 1 1 1 1 1 1 0 0 0 0 0 1 1 1 0 0 0 0 0 0 0 0 0 0 1 1 1 1 1 1 1 1
2 2 2 2 2 2 1 1 1 1 1 1 1 1 1 1 1 1 1 1 1 1 1 1 0 0 0 0 0 0 0 0 0 0 0 0 0 0 0 1 1 1 1
3 3 3 3 3 2 2 2 2 2 1 1 1 1 1 1 1 1 1 1 1 1 1 1 0 0 0 0 0 0 0 0 0 0 0 0 0 0 0 0 0 0 0
4 4 3 3 3 3 3 3 2 2 2 2 1 1 1 1 1 2 1 1 1 1 1 0 0 0 0 0 0 0 0 0 0 0 0 0 0 0 0 0 0 0 0
6 5 4 4 3 3 3 3 3 2 2 2 1 1 1 1 2 2 2 1 1 1 1 0 0 0 0 0 0 0 0 0 0 0 0 0 0 0 0 0 0 0 0
7 6 5 4 4 4 4 4 4 3 3 2 2 1 1 1 1 1 1 1 1 0 0 0 0 0 0 0 0 0 0 0 0 0 0 0 0 0 0 0 0 0 0
6 5 5 5 5 5 5 6 6 5 5 4 3 2 1 1 1 1 0 0 0 0 0 0 0 0 0 0 0 0 0 0 0 0 0 0 0 0 0 0 0 0 0
4 4 4 5 6 6 7 7 7 6 6 5 4 2 1 1 0 0 0 0 0 0 0 0 0 0 0 0 0 0 0 0 0 0 0 0 0 0 0 0 0 0 0
3 4 4 5 6 6 7 7 7 6 6 5 4 2 1 0 0 0 0 0 0 0 0 0 0 0 0 0 0 0 0 0 0 0 0 0 0 0 0 0 0 0 0
Wind_Speed
8 10 17 17 16 16 17 19 20 21 21 21 20 20 19 18 17 17 16 16 16 16 16 16 16 16 16 16 16 15 15 15 14 15 15 15 15 15 16 16 15 12 16
13 13 18 17 17 18 18 19 20 20 20 20 19 19 18 17 16 16 15 15 15 16 16 15 15 15 15 15 15 14 14 13 13 13 14 14 15 15 15 15 14 11 15
15 13 16 18 18 19 20 19 19 19 19 19 18 17 17 16 15 15 15 14 15 15 15 15 14 14 13 13 13 13 13 13 13 13 13 9 11 14 15 15 15 15 14
16 12 13 18 18 19 20 19 18 19 19 18 17 17 16 15 14 14 14 14 14 14 14 13 13 12 12 12 12 12 12 12 12 12 7 7 9 14 15 15 15 14 14
14 11 13 18 17 18 19 19 18 18 18 17 16 16 15 14 13 13 13 13 12 12 12 12 11 11 10 10 9 9 10 11 11 9 6 6 7 12 14 14 14 14 13
13 11 13 18 17 17 18 18 18 17 17 16 16 15 14 13 12 12 12 11 11 11 11 10 10 9 9 8 7 7 8 10 9 6 6 7 7 12 13 13 14 13 12
12 9 12 16 16 16 17 17 17 16 15 15 14 14 13 12 11 10 10 10 10 10 9 8 8 7 7 6 5 6 7 10 7 6 6 6 7 11 13 12 12 12 11
13 10 10 16 18 17 17 16 15 15 14 13 13 12 12 11 10 9 9 9 8 8 7 7 6 5 5 4 4 5 7 9 8 7 6 5 7 10 11 11 11 10 10
10 10 8 9 13 16 15 15 14 14 13 12 12 11 11 10 10 9 8 7 6 6 6 5 4 4 3 2 2 3 6 8 6 5 6 4 6 9 10 9 9 9 9
8 8 8 7 7 7 9 14 15 13 13 12 12 12 11 11 9 8 6 5 5 5 4 4 3 2 2 1 1 2 5 7 5 4 3 4 7 9 9 8 8 8 8
9 7 7 7 7 6 7 10 12 13 12 12 11 12 9 4 4 4 5 6 5 4 4 3 2 1 1 1 2 3 4 3 4 3 3 6 8 9 8 8 8 8 7
12 10 7 8 8 7 7 6 5 5 6 6 5 5 4 3 2 3 3 6 6 5 3 2 2 1 1 1 2 2 2 3 3 2 2 6 8 8 8 7 7 7 7
13 11 9 8 8 8 5 5 4 3 4 4 5 5 4 3 2 2 1 2 2 2 0 2 2 1 0 1 1 1 2 3 2 2 3 6 6 7 8 7 6 6 5
12 12 10 9 8 8 6 5 5 4 4 4 5 6 4 3 2 2 1 1 0 1 1 1 0 0 1 2 3 3 3 3 3 2 3 7 6 6 7 7 6 5 5
13 12 11 10 10 8 6 5 6 5 5 5 4 5 5 4 4 3 2 2 1 1 1 1 0 0 1 1 2 3 3 4 4 3 2 6 6 6 6 6 6 5 5
13 12 10 11 9 8 6 6 5 5 5 5 5 6 6 5 4 4 3 2 2 2 2 1 1 2 2 2 3 3 4 4 4 4 3 4 6 6 6 6 5 5 5
13 12 12 12 10 9 8 7 5 5 5 5 5 6 7 6 5 4 3 3 3 2 3 3 3 3 3 3 4 4 4 3 4 4 3 3 3 4 6 5 5 5 5
11 12 12 12 12 10 8 7 5 5 5 5 5 5 7 7 7 5 4 4 3 3 3 3 3 3 3 3 3 3 3 3 4 3 3 3 2 2 3 5 5 5 4
13 12 12 11 12 11 9 6 5 4 5 5 5 5 6 7 7 6 4 4 4 4 4 4 3 3 3 4 4 4 4 4 3 3 3 3 2 2 2 2 3 3 4
10 11 11 10 10 9 7 5 4 3 3 2 3 4 6 6 7 6 4 5 5 4 4 4 4 3 3 3 5 5 4 4 4 3 2 2 2 2 2 2 1 1 2
9 10 11 12 11 9 7 6 5 5 4 3 3 4 5 5 6 6 5 6 5 5 5 6 4 5 3 2 3 3 3 4 5 4 3 3 3 3 3 3 2 2 3
9 9 9 10 11 11 8 6 3 4 3 2 2 2 3 5 5 5 6 5 5 6 6 5 5 3 2 1 2 3 1 1 3 4 4 3 4 4 5 5 4 4 3
4 6 7 9 9 9 8 6 5 4 3 3 3 3 3 5 5 6 7 6 5 5 6 5 5 5 4 2 2 3 4 4 1 2 4 4 5 5 4 4 6 6 5
1 1 3 6 7 8 9 9 9 7 5 4 4 4 5 5 6 6 7 7 6 5 5 4 3 3 5 3 2 3 2 3 4 2 1 3 4 6 5 5 6 7 7
4 3 2 4 6 7 8 9 8 5 4 5 6 7 6 5 5 6 7 7 6 5 6 6 5 4 3 4 3 2 3 3 3 3 2 1 2 3 4 4 4 5 7
6 5 4 5 5 6 7 8 8 8 8 8 7 6 5 4 5 6 7 7 7 6 7 7 6 7 6 6 5 3 2 3 2 3 2 1 0 1 2 2 3 4 5
Wind_Direction
155 158 156 151 143 134 126 121 119 119 120 122 123 125 126 126 125 123 121 117 113 109 107 105 105 105 105 106 107 109 110 110 110 112 115 114 111 110 108 107 107 109 110
146 154 153 150 144 137 131 126 123 122 123 124 125 126 127 127 126 124 121 118 115 112 111 110 111 111 110 109 110 112 113 112 111 114 119 121 119 117 116 113 111 113 113
141 150 151 150 146 139 134 130 128 127 126 127 127 127 127 127 126 125 123 120 118 116 115 115 115 115 115 115 116 118 119 116 113 114 114 118 123 122 122 119 116 113 113
141 145 150 151 147 141 137 134 132 132 131 130 130 130 130 129 128 127 126 123 121 119 118 118 119 119 119 120 123 127 129 127 123 120 115 122 127 126 124 123 121 119 116
141 144 154 151 148 143 141 139 137 136 135 135 134 134 134 133 132 131 130 128 125 123 121 121 122 121 121 123 128 133 135 137 135 127 124 121 122 132 130 129 128 125 122
143 147 155 153 150 147 145 143 142 141 140 139 139 138 138 137 137 136 136 134 130 127 125 125 125 123 122 125 131 137 138 140 135 133 132 132 135 140 137 135 133 130 128
145 148 155 154 153 151 149 147 147 145 144 143 143 142 142 142 141 142 143 141 138 134 131 130 128 125 123 127 135 141 142 143 136 136 139 140 147 148 145 142 138 134 131
149 148 154 159 158 156 154 152 151 150 148 147 147 147 148 148 149 150 151 151 146 139 135 134 131 124 121 126 137 146 147 147 140 142 141 145 156 153 150 146 142 137 131
145 147 151 159 162 162 159 156 155 154 153 152 152 153 156 158 160 162 161 160 153 146 144 143 141 132 125 132 150 158 158 154 138 142 148 151 162 158 152 147 141 134 126
143 151 151 152 152 154 158 163 161 159 158 159 161 164 168 170 171 174 171 174 172 167 163 161 164 149 144 177 199 190 174 144 135 140 141 158 160 157 149 145 140 133 126
158 159 155 150 148 147 153 168 167 167 166 167 170 175 172 165 170 179 185 195 198 197 193 185 192 186 185 252 247 212 163 125 138 136 140 163 161 156 149 144 140 136 132
173 174 165 158 155 152 163 157 153 160 163 163 162 167 154 147 167 178 202 213 220 221 223 219 220 225 120 307 283 206 134 146 148 144 159 165 162 155 149 145 143 140 139
175 176 174 167 161 160 156 150 149 148 155 159 161 157 147 144 150 161 147 244 259 256 57 39 39 53 175 221 223 169 168 160 157 150 160 160 158 155 150 146 143 140 139
175 182 176 173 168 167 158 158 156 156 163 167 165 158 152 154 166 176 187 207 204 90 94 67 33 331 231 225 209 182 171 163 154 141 159 159 158 157 153 149 145 140 135
182 183 179 177 176 171 162 163 167 170 174 170 165 167 164 168 181 190 204 204 197 163 149 148 120 55 58 132 166 163 159 149 144 139 150 157 153 156 156 152 148 143 136
187 185 178 180 179 172 172 172 173 175 172 168 174 177 175 176 182 189 204 203 197 177 161 151 143 112 81 89 104 122 131 133 135 133 126 143 150 151 151 148 144 143 138
187 183 180 181 177 179 180 180 175 176 173 181 184 182 183 183 185 185 190 195 189 160 143 131 114 98 91 87 83 88 95 100 118 118 113 111 119 129 131 132 135 139 138
182 183 185 187 182 183 184 180 176 174 177 186 184 186 190 189 184 179 184 190 170 149 143 136 124 100 86 89 85 73 76 82 86 91 85 82 83 93 119 132 134 141 151
184 182 184 185 181 183 181 176 175 173 184 187 182 187 191 187 181 175 180 173 156 144 143 142 120 115 111 103 92 69 54 55 53 73 75 70 65 72 71 122 142 164 182
182 181 182 183 177 172 170 165 161 158 176 178 177 187 182 178 176 169 164 159 151 141 137 132 118 98 104 109 89 65 45 38 39 43 51 58 48 51 42 29 30 341 292
182 184 183 180 174 167 172 177 179 178 169 169 168 173 170 163 166 161 158 153 150 145 143 135 116 104 85 89 93 67 38 42 46 33 31 42 36 33 37 30 18 5 341
185 186 186 183 176 178 182 172 160 137 139 138 133 131 137 145 151 154 150 148 144 134 136 137 128 117 90 53 126 123 106 27 27 24 30 44 43 40 40 36 30 20 1
177 190 187 185 185 181 163 136 117 108 112 133 141 126 111 123 131 135 135 135 140 139 144 141 141 137 134 83 47 149 158 183 126 28 31 41 47 51 44 41 46 36 28
351 186 177 177 178 171 162 161 162 173 173 162 141 128 117 114 117 120 125 128 126 121 126 128 127 130 133 134 86 49 74 120 141 126 35 30 48 52 47 50 50 46 39
25 38 115 146 154 158 161 164 163 155 138 125 123 122 108 99 102 111 116 116 112 108 108 104 102 101 106 123 126 120 90 71 74 128 135 28 40 42 42 47 53 48 36
37 44 62 106 125 141 144 148 156 153 143 137 137 133 120 105 92 91 93 95 98 98 98 97 94 91 89 92 90 90 110 110 100 101 121 112 20 19 20 34 47 42 30